Location: Altoona
(40.5167°N, 78.4000°W)
Time: 15:13:35
(UTC-04:00)

Meteor 1-21 - Pass Details

Date: 21 August 2017
Orbit: 842 x 890 km, 81.2° (Epoch: 24 September)

Event Time Altitude Azimuth Distance (km) Brightness Sun altitude
Rises 22:53:50 0° 352° (N) 3,417 8.2 -28.2°
Reaches altitude 10° 22:56:16 10° 354° (N) 2,482 7.3 -28.5°
Enters shadow 23:01:17 68° 27° (NNE) 919 4.3 -29.1°
